Weather Roundup
Issued by NWS

Home | Current Version | Previous Version | Graphics & Text | Print | Product List | Glossary Off
Versions: 1 2 3 4 5 6 7 8 9 10 11 12 13 14 15 16 17 18 19 20 21 22 23 24 25 26 27 28 29 30 31 32 33 34 35 36 37 38 39 40 41 42 43 44 45 46 47 48 49 50

000
NZUS93 KARX 221659
HRRWXR

CURRENT HOURLY OBSERVATIONS ACROSS
MUCH OF THE UPPER MISSISSIPPI VALLEY
NATIONAL WEATHER SERVICE LA CROSSE WI
1200 PM CDT MON MAY 22 2017


...SOUTHEAST MINNESOTA...


CITY           SKY/WX    TMP DP  RH WIND       PRES   REMARKS
ROCHESTER      SUNNY     62  49  62 W7        29.88F
ROCHESTER/MAYO FAIR      61  44  53 W8        29.87S
WINONA         SUNNY     63  45  51 SW7       29.86F
AUSTIN         SUNNY     63  45  51 CALM      29.87S
ALBERT LEA     SUNNY     64  45  48 NW5       29.87S
DODGE CENTER   LGT RAIN  61  43  51 W7        29.86S
PRESTON        SUNNY     61  47  60 NW7       29.88S
OWATONNA       SUNNY     63  46  55 W6        29.86F
FARIBAULT      SUNNY     63  46  55 SW6       29.86F
$$

...ELSEWHERE IN MINNESOTA...


CITY           SKY/WX    TMP DP  RH WIND       PRES   REMARKS
MINNEAPOLIS    MOSUNNY   61  42  49 W15G22    29.84F
INTNL FALLS    CLOUDY    50  42  74 NW8       29.73R
DULUTH         CLOUDY    50  44  80 W10       29.76S
RED WING       NOT AVBL
REDWOOD FALLS  SUNNY     61  44  53 NW8       29.86F
MANKATO        SUNNY     60  43  53 N6        29.87S
WORTHINGTON    SUNNY     62  48  60 E5        29.88S
FAIRMONT       SUNNY     62  50  64 N8        29.87F
$$

...SOUTHWEST WISCONSIN...


CITY           SKY/WX    TMP DP  RH WIND       PRES   REMARKS
LA CROSSE      SUNNY     66  48  52 S12       29.86F
PRAIRIE DU CHI LGT RAIN  53  47  81 S6        29.92F
BOSCOBEL       LGT RAIN  55  50  83 S5        29.92F
LONE ROCK      NOT AVBL
PLATTEVILLE    MOSUNNY   58  50  75 SW12      29.97S
FORT MC COY    SUNNY     62  46  55 W8        29.88F
MAUSTON-NEW LI SUNNY     63  46  54 SW12      29.87F
VIROQUA        FAIR      57  46  67 N13G21    29.91R
WIS DELLS      MOSUNNY   61  47  59 SW15G24   29.90S
$$

...ELSEWHERE IN WISCONSIN...


CITY           SKY/WX    TMP DP  RH WIND       PRES   REMARKS
MILWAUKEE      MOSUNNY   66  44  45 W16G26    29.95F
MADISON        LGT RAIN  60  47  61 SW8G20    29.93S
GREEN BAY      PTSUNNY   61  46  57 SW15G21   29.87F
EAU CLAIRE     NOT AVBL
BLACK RVR FLS  FAIR      62  42  48 SW8       29.86S
MEDFORD        PTSUNNY   55  43  64 SW12G21   29.82F
WAUSAU         PTSUNNY   58  42  55 W15G24    29.82F
WIS RAPIDS     SUNNY     63  44  50 W14G21    29.86F
MARSHFIELD     SUNNY     61  44  53 W14G23    29.83F
RICE LAKE      CLOUDY    55  43  63 W15       29.84S
$$

...NORTHEAST IOWA...


CITY           SKY/WX    TMP DP  RH WIND       PRES   REMARKS
WATERLOO       SUNNY     64  52  64 S14       29.88F
DUBUQUE        RAIN      54  50  86 CALM      29.94F FOG
DECORAH        MOSUNNY   57  50  77 VRB5      29.88F
MASON CITY     PTSUNNY   63  51  65 W6        29.89F
CHARLES CITY   MOSUNNY   61  54  77 SW10      29.89F
OELWEIN        SUNNY     61  54  77 S17       29.90F
$$

...ELSEWHERE IN IOWA...


CITY           SKY/WX    TMP DP  RH WIND       PRES   REMARKS
DES MOINES     CLOUDY    67  53  61 SW14      29.90F
IOWA CITY      CLOUDY    70  50  49 SW20G29   29.93F
FORT DODGE     SUNNY     68  54  60 W8        29.88F
MARSHALLTOWN   MOSUNNY   67  54  63 SW14      29.88F
CEDAR RAPIDS   PTSUNNY   65  53  65 SW14      29.90F
$$

...NORTHERN ILLINOIS...


CITY           SKY/WX    TMP DP  RH WIND       PRES   REMARKS
CHICAGO-OHARE  MOSUNNY   65  44  46 SW16G26   29.99S
CHICAGO-MIDWAY MOSUNNY   67  45  45 SW16G29   30.00F
MOLINE         MOSUNNY   73  49  42 SW16G24   29.95F
ROCKFORD       CLOUDY    68  49  50 SW10G20   29.98F
PEORIA         SUNNY     71  43  36 SW15G24   30.01F
$$

NOTE: "FAIR" INDICATES FEW OR NO CLOUDS BELOW 12,000 FEET WITH NO
SIGNIFICANT WEATHER AND/OR OBSTRUCTIONS TO VISIBILITY. WIND
SPEEDS ARE IN MILES-PER-HOUR.




USA.gov is the U.S. government's official web portal to all federal, state and local government web resources and services.